Regional Weather Roundup
Issued by NWS

Home | Current Version | Previous Version | Text Only | Print | Product List | Glossary Off
Versions: 1 2 3 4 5 6 7 8 9 10 11 12 13 14 15 16 17 18 19 20 21 22 23 24 25 26 27 28 29 30 31 32 33 34 35 36 37 38 39 40 41 42 43 44 45 46 47 48 49 50

000
ASUS45 KBOU 271107
RWRCO

WEATHER ROUNDUP FOR COLORADO
NATIONAL WEATHER SERVICE DENVER/BOULDER CO
500 AM MDT THU APR 27 2017

NOTE: "FAIR" INDICATES FEW OR NO CLOUDS BELOW 12000 FEET WITH NO
SIGNIFICANT WEATHER AND/OR OBSTRUCTIONS TO VISIBILITY.

COZ001>005-013-030-031-271200-
...NORTHWEST COLORADO...

CITY           SKY/WX    TMP DP  RH WIND       PRES   REMARKS
CRAIG          CLOUDY    39  35  86 NE5       29.63F
HAYDEN         CLOUDY    36  30  80 E3        29.63F
MEEKER         LGT RAIN  36  35  96 CALM      29.65S
MOUNT WERNER   NOT AVBL
STEAMBOAT SPGS CLOUDY    33  32  98 CALM      29.63F
WALDEN           N/A     32  27  80 S10       29.63S WCI  24
$$

COZ006>008-011-271200-
...WEST CENTRAL VALLEYS...

CITY           SKY/WX    TMP DP  RH WIND       PRES   REMARKS
GRAND JUNCTION LGT RAIN  45  42  89 S3        29.65S
MONTROSE       MOCLDY    41  33  73 SW3       29.68F
EAGLE          LGT RAIN  36  34  92 E5        29.67F
RIFLE          LGT RAIN  41  39  93 CALM      29.66S
DELTA          LGT RAIN  46  39  74 NE6       29.67S
NUCLA          CLOUDY    45  34  65 E5        29.73S
$$

COZ017>023-064>068-271200-
...SOUTHWEST COLORADO...

CITY           SKY/WX    TMP DP  RH WIND       PRES   REMARKS
DURANGO        LGT RAIN  37  36  96 SW7       29.74F
CORTEZ         LGT RAIN  43  43 100 SE3       29.73S FOG
PAGOSA SPRINGS LGT SNOW  34  34 100 CALM      29.76F
TELLURIDE      CLOUDY    33  33  99 CALM      29.77S
WOLF CREEK PAS SNOW      21  21 100 S15G21    29.83S VSB 1/2 WCI   8
$$

COZ009-010-012-014-032>034-037-058>063-271200-
...CENTRAL COLORADO...

CITY           SKY/WX    TMP DP  RH WIND       PRES   REMARKS
ASPEN          FLURRIES  33  32  96 CALM      29.64F
BUENA VISTA    CLOUDY    33  28  82 W3        29.65F
COPPER MTN     FLURRIES  27  19  74 MISG      29.70F
BERTHOUD PASS  CLOUDY    18   5  57 NW23G29   29.67F WCI   0
COTTONWOOD PAS CLOUDY    32  28  86 W5        29.67F WCI  27
GUNNISON       MIX PCPN  33  32  96 CALM      29.70F
KREMMLING      FLURRIES  37  36  93 CALM      29.65F
LEADVILLE      LGT SNOW  27  23  85 VRB3      29.66F FOG
MONARCH PASS   CLOUDY    23  21  93 W21       29.82F WCI   8
SALIDA         CLOUDY    41  28  59 NW7       29.70F
SUNLIGHT       LGT SNOW  27  23  86 SW14G26   29.72F WCI  15
WILKERSON PASS SNOW      23  21  93 SW16G22   29.69F VSB 1/2 WCI  10
$$

COZ069>075-271200-
...SAN LUIS VALLEY/SANGRE DE CRISTO MOUNTAINS...

CITY           SKY/WX    TMP DP  RH WIND       PRES   REMARKS
ALAMOSA        CLOUDY    40  28  62 SW10      29.68F
LA VETA PASS   LGT SNOW  28  27  93 SW24G38   29.80F WCI  14
SAGUACHE       CLOUDY    34  25  69 CALM      29.70S
$$

COZ035-036-038>040-271200-
...NORTHERN COLORADO FRONT RANGE...

CITY           SKY/WX    TMP DP  RH WIND       PRES   REMARKS
DENVER INTL AP CLOUDY    39  33  79 W8        29.57S
DMNS CITY PARK   N/A     41  34  75 W2        29.58S
AURORA         NOT AVBL
FRONT RANGE AP CLOUDY    41  34  75 SW6       29.58F
ERIE MUNI ARPT CLOUDY    40  37  91 CALM      29.58F
BOULDER MUN AP CLOUDY    41  36  81 CALM      29.58F
CENTENNIAL     MOCLDY    39  33  79 NW6       29.58F
BROOMFIELD     CLOUDY    41  36  81 N13       29.58F
FORT COLLINS   FAIR      39  35  86 NE5       29.59F
LONGMONT       FAIR      42  37  81 N3        29.60F
$$

COZ041-046-047-076>085-087-088-271200-
...PIKES PEAK/PALMER DIVIDE AND SOUTHERN FOOTHILLS...

CITY           SKY/WX    TMP DP  RH WIND       PRES   REMARKS
COLO. SPRINGS  MOCLDY    39  34  82 NE7       29.60F
A. F. ACADEMY  NOT AVBL
SCHRIEVER AFB  NOT AVBL
ELLICOTT       CLOUDY   N/A N/A N/A SE8       29.58F
FALCON         CLOUDY    37  33  87 NW3       29.62F
FORT CARSON    NOT AVBL
LIMON          FAIR      34  33  96 SE3       29.61F
MONUMENT HILL  CLOUDY    34  32  93 SW9       29.61F WCI  26
TRINIDAD       FAIR      45  31  58 N5        29.60S
$$

COZ042>045-048>051-090-091-271200-
...NORTHEAST COLORADO...

CITY           SKY/WX    TMP DP  RH WIND       PRES   REMARKS
GREELEY ARPT   FAIR      39  37  92 N5        29.59F
AKRON          FAIR      38  34  85 S6        29.59F
BURLINGTON     NOT AVBL
WRAY           NOT AVBL
STERLING       CLOUDY    41  39  93 CALM      29.59S
HOLYOKE        FAIR      37  32  81 SE5       29.62S
FORT MORGAN    FAIR      38  36  94 CALM      29.59F
$$

COZ086-089-092>099-271200-
...SOUTHEAST COLORADO...

CITY           SKY/WX    TMP DP  RH WIND       PRES   REMARKS
PUEBLO         MOCLDY    43  38  82 NE9       29.57F
LA JUNTA       FAIR      42  38  85 E3        29.58F
LAMAR          FAIR      37  34  89 E7        29.59F
SPRINGFIELD      N/A     39  34  82 S7        29.61F
$$



USA.gov is the U.S. government's official web portal to all federal, state and local government web resources and services.